This demonstration page uses our WeatherBlox Daily Observations layout. Learn more.

Left ArrowRight Arrow

34.74481, -87.66753

Hourly Observations for December 22, 2020

Temp ( °F °C ) Dew Point ( °F °C ) Humidity (%) Winds ( mph kmh ) Pressure ( in mb ) Visibility ( mi km ) Precip ( " mm )
12:53 am 00:53 Clear 42 5.6 34 1.1 73 73 Calm 30.16 1021 10 16 0.00 0.00
1:53 am 01:53 Clear 42 5.6 35 1.7 76 76 WSW 5 7 30.17 1022 10 16 0.00 0.00
2:53 am 02:53 Clear 41 5 33 0.6 73 73 WSW 3 6 30.18 1022 10 16 0.00 0.00
3:53 am 03:53 Clear 38 3.3 33 0.6 83 83 Calm 30.20 1023 10 16 0.00 0.00
4:53 am 04:53 Hazy 37 2.8 32 0 82 82 Calm 30.22 1023 3 4 0.00 0.00
5:07 am 05:07 Clear 37 2.8 32 0 82 82 Calm 30.24 1024 10 16 0.00 0.00
5:28 am 05:28 Hazy 38 3.3 32 0 79 79 Calm 30.25 1024 2 3 0.00 0.00
5:39 am 05:39 Clear with Fog 37 2.8 33 0.6 86 86 Calm 30.26 1025 1 1 0.00 0.00
5:53 am 05:53 Hazy 36 2.2 31 -0.6 82 82 Calm 30.24 1024 1 1 0.00 0.00
6:08 am 06:08 Hazy 36 2.2 31 -0.6 82 82 Calm 30.26 1025 2 3 0.00 0.00
6:15 am 06:15 Clear 36 2.2 31 -0.6 82 82 Calm 30.27 1025 8 13 0.00 0.00
6:53 am 06:53 Clear 36 2.2 31 -0.6 82 82 Calm 30.27 1025 7 11 0.00 0.00
7:53 am 07:53 Sunny 37 2.8 32 0 82 82 Calm 30.28 1026 10 16 0.00 0.00
8:53 am 08:53 Sunny 47 8.3 39 3.9 74 74 Calm 30.30 1026 10 16 0.00 0.00
9:53 am 09:53 Sunny 53 11.7 30 -1.1 41 41 ENE 5 7 30.31 1026 10 16 0.00 0.00
10:53 am 10:53 Sunny 54 12.2 27 -2.8 35 35 VRB 5 7 30.30 1026 10 16 0.00 0.00
11:53 am 11:53 Sunny 56 13.3 25 -3.9 30 30 Calm 30.29 1026 10 16 0.00 0.00
12:53 pm 12:53 Sunny 58 14.4 26 -3.3 29 29 SE 3 6 30.27 1025 10 16 0.00 0.00
1:53 pm 13:53 Sunny 59 15 27 -2.8 29 29 Calm 30.24 1024 10 16 0.00 0.00
2:53 pm 14:53 Sunny 59 15 27 -2.8 29 29 SSE 5 7 30.23 1024 10 16 0.00 0.00
3:53 pm 15:53 Sunny 58 14.4 28 -2.2 32 32 E 6 9 30.23 1024 10 16 0.00 0.00
4:53 pm 16:53 Clear 50 10 31 -0.6 48 48 E 5 7 30.22 1023 10 16 0.00 0.00
5:53 pm 17:53 Clear 47 8.3 28 -2.2 48 48 E 3 6 30.22 1023 10 16 0.00 0.00
6:53 pm 18:53 Clear 45 7.2 28 -2.2 52 52 E 6 9 30.21 1023 10 16 0.00 0.00
7:53 pm 19:53 Clear 46 7.8 28 -2.2 50 50 ESE 3 6 30.21 1023 10 16 0.00 0.00
8:53 pm 20:53 Clear 43 6.1 30 -1.1 60 60 Calm 30.20 1023 10 16 0.00 0.00
9:53 pm 21:53 Clear 42 5.6 30 -1.1 62 62 SE 3 6 30.20 1023 10 16 0.00 0.00
10:53 pm 22:53 Clear 43 6.1 28 -2.2 56 56 ESE 6 9 30.18 1022 10 16 0.00 0.00
11:53 pm 23:53 Clear 44 6.7 28 -2.2 53 53 ESE 5 7 30.17 1022 10 16 0.00 0.00

Powered by AerisWeather